TimeMST,TemperatureF,Dew PointF,Humidity,Sea Level PressureIn,VisibilityMPH,Wind Direction,Wind SpeedMPH,Gust SpeedMPH,PrecipitationIn,Events,Conditions,WindDirDegrees,DateUTC
12:56 AM,68.0,57.9,70,29.96,10.0,ENE,5.8,-,N/A,,Scattered Clouds,60,2013-09-07 07:56:00
1:56 AM,66.0,59.0,78,29.97,10.0,East,4.6,-,N/A,,Partly Cloudy,90,2013-09-07 08:56:00
2:56 AM,66.9,59.0,76,29.97,10.0,South,4.6,-,N/A,,Mostly Cloudy,190,2013-09-07 09:56:00
3:56 AM,66.9,60.1,79,29.99,10.0,West,3.5,-,N/A,,Overcast,280,2013-09-07 10:56:00
4:56 AM,68.0,59.0,73,29.99,10.0,SW,3.5,-,0.00,,Overcast,230,2013-09-07 11:56:00
5:56 AM,69.1,57.9,68,30.00,10.0,SSE,3.5,-,N/A,,Overcast,150,2013-09-07 12:56:00
6:56 AM,66.0,61.0,84,30.01,10.0,Calm,Calm,-,0.02,,Overcast,0,2013-09-07 13:56:00
7:56 AM,66.9,61.0,81,30.01,10.0,SSE,3.5,-,0.00,Rain,Light Rain,160,2013-09-07 14:56:00
8:56 AM,66.0,62.1,87,30.05,4.0,South,8.1,-,0.02,Rain,Rain,170,2013-09-07 15:56:00
9:56 AM,66.9,61.0,81,30.04,8.0,Calm,Calm,-,0.06,Rain,Light Rain,0,2013-09-07 16:56:00
10:56 AM,66.0,62.1,87,30.05,5.0,SE,5.8,-,0.07,Rain,Rain,140,2013-09-07 17:56:00
11:56 AM,68.0,62.1,81,30.03,10.0,WSW,4.6,-,0.05,Rain,Light Rain,250,2013-09-07 18:56:00
12:56 PM,68.0,63.0,84,30.01,10.0,NW,8.1,-,0.01,,Overcast,310,2013-09-07 19:56:00
1:56 PM,68.0,63.0,84,29.99,10.0,NNW,6.9,-,0.00,Rain,Light Rain,330,2013-09-07 20:56:00
2:56 PM,71.1,61.0,70,29.95,10.0,WNW,4.6,-,0.00,,Scattered Clouds,290,2013-09-07 21:56:00
3:56 PM,72.0,61.0,68,29.93,10.0,Calm,Calm,-,N/A,,Clear,0,2013-09-07 22:56:00
4:56 PM,72.0,62.1,71,29.93,10.0,Calm,Calm,-,N/A,,Clear,0,2013-09-07 23:56:00
5:56 PM,72.0,61.0,68,29.92,10.0,Calm,Calm,-,N/A,,Scattered Clouds,0,2013-09-08 00:56:00
6:56 PM,71.1,62.1,73,29.96,10.0,Calm,Calm,-,N/A,,Clear,0,2013-09-08 01:56:00
7:56 PM,70.0,61.0,73,29.96,10.0,Calm,Calm,-,N/A,,Partly Cloudy,0,2013-09-08 02:56:00
8:56 PM,69.1,62.1,78,29.96,10.0,WSW,4.6,-,N/A,,Partly Cloudy,250,2013-09-08 03:56:00
9:56 PM,66.9,63.0,87,29.98,2.5,Calm,Calm,-,0.10,Rain,Heavy Rain,0,2013-09-08 04:56:00
10:04 PM,66.2,62.6,88,30.12,7.0,NW,4.6,-,0.00,Rain,Light Rain,320,2013-09-08 05:04:00
10:56 PM,66.9,63.0,87,29.97,8.0,Calm,Calm,-,0.00,Rain,Light Rain,0,2013-09-08 05:56:00
11:56 PM,66.0,62.1,87,29.97,6.0,West,4.6,-,0.02,Rain,Light Rain,280,2013-09-08 06:56:00